Volver al catálogo

STARLINK-36408

ActivoComunicacionesVLEO
NORAD 67473·PAYLOAD·🇺🇸 United States

Lanzado Jan 14, 2026 desde Cape Canaveral Space Force Station

Loading…

Próximos Pases (próximas 24 horas)

TLE

ActualizadoSource: CelesTrak SupGP

Época: Sep 15, 2026, 03:52 UTC

1 67473C 26008AE  26258.16159722 -.00030449  00000+0 -11030-2 0  2585
2 67473  43.0028 215.2852 0001292 270.5985 254.5276 15.27589318    12

Sigue STARLINK-36408 en tiempo real con AllMySat

Download on the App Store